sat.trackr.live / text

‹ back to catalog

STARLINK-3161

NORAD 49422 · 2021-104Q

PAYLOAD ACTIVE UNKNOWN

§ Identity

Operator
Country
US
Launch date
2021-11-13
Launch site
AFETR
Launch vehicle
Mass (kg)
RCS (m²)

Purposes: comms

External: N2YO · Heavens-Above · Gunter

§ Orbital elements

Epoch: 2026-05-24T16:55:12.343008Z

Period
95.44 min
Inclination
53.2157°
Eccentricity
0.0001265
Mean motion
15.08836343 rev/d
Perigee alt
538.9 km
Apogee alt
540.6 km
Semi-major
6,917.9 km
B*
1.0022e-4
RAAN
248.1917°
Arg perigee
92.7296°
Mean anomaly
267.3841°
Rev number
25,009

§ Raw data

STARLINK-31611 49422U 21104Q   26144.70500397  .00001307  00000+0  10022-3 0  99952 49422  53.2157 248.1917 0001265  92.7296 267.3841 15.08836343250095

JSON: /api/v1/satellites/49422 · /tle

For live sub-satellite position, see the globe view (requires WebGL).

§ Visibility from observer

Set your observer location to see the next 7 days of passes ≥ 10°. The values pass through the URL so the page stays shareable.

No JS? Fill the form by hand. The geolocation button needs JavaScript.